User: anonymous
Location: Caltech
(34.1382°N, 118.1253°W)
Time: 06:30:21
(UTC-07:00)
Language:

Iridium 12 - Orbit

View from above orbital plane
View from above orbital plane
View from above satellite
View from above satellite

Ground track
Ground track

The orbit data is extracted from the following two-line orbital elements,

1 24837U 97030B   14211.24398777  .00000144  00000-0  44387-4 0  9268
2 24837 086.3934 070.2581 0002150 100.3287 036.4162 14.34215552896020
Epoch (UTC): 30 July 2014 05:51:20
Eccentricity: 0.0002150
inclination: 86.3934°
perigee height: 776 km
apogee height: 779 km
right ascension of ascending node: 70.2581°
argument of perigee: 100.3287°
revolutions per day: 14.34215552
mean anomaly at epoch: 36.4162°
orbit number at epoch: 89602

The dashed part of the orbit path shows where the satellite is in the earth's shadow,  

DLR